Location: Passau
(48.5830°N, 13.4830°E)
Time: 05:37:47
(UTC+02:00)

Vanguard 1 - Pass Details

Date: 04 August 2021
Orbit: 652 x 3831 km, 34.3° (Epoch: 16 September)

Event Time Altitude Azimuth Distance (km) Brightness Sun altitude
Rises 11:36:29 0° 226° (SW) 2,983 12.6 53.0°
Reaches altitude 10° 11:39:18 10° 205° (SSW) 2,186 12.2 53.3°
Maximum altitude 11:42:30 17° 163° (SSE) 1,947 12.5 53.6°
Drops below altitude 10° 11:46:27 10° 124° (ESE) 2,790 13.1 54.0°
Sets 11:50:46 0° 106° (ESE) 4,247 13.7 54.4°
